Weather History for Quesnel, BC

Change the Weather History Date:

Wednesday, November 21, 2012

  Actual Average Record
Temperature  
Mean Temperature 18 °F -  
Max Temperature 19 °F 32 °F 53 °F (2002)
Min Temperature 17 °F 21 °F -20 °F (1996)
Degree Days  
Heating Degree Days 47    
Moisture  
Dew Point 15 °F    
Average Humidity 83    
Maximum Humidity 93    
Minimum Humidity 73    
Precipitation  
Precipitation 0.00 in - - ()
Sea Level Pressure  
Sea Level Pressure 29.90 in    
Wind  
Wind Speed 8 mph ()    
Max Wind Speed 16 mph    
Max Gust Speed 21 mph    
Visibility 9.0 miles    
Events Snow    
Averages and records for this station are not official NWS values.
T = Trace of Precipitation, MM = Missing Value Source: Averaged Metar Reports

Daily Weather History Graph

Daily Weather History Graph

Search for Another Location

Airport:

Trip Planner

Search our weather history database for the weather conditions in past years. The results will help you decide how hot, cold, wet, or windy it might be!

Date:

Astronomy

Nov. 21, 2012 Rise Set
Actual Time 7:45 AM PST 4:06 PM PST
Civil Twilight 7:06 AM PST 4:45 PM PST
Nautical Twilight 6:23 AM PST 5:28 PM PST
Astronomical Twilight 5:41 AM PST 6:09 PM PST
Moon 1:10 PM PST (11/21) 12:19 AM PST (11/21)
Length of Visible Light 9h 39m
Length of Day
8h 20m
Waxing Gibbous, 63% of the Moon is Illuminated
Nov 21
Waxing Gibbous
Nov 28
Full
Dec 6
Last Quarter
Dec 13
New
Dec 19
First Quarter

Hourly Weather History & Observations

Time (PST) Temp. Windchill Dew Point Humidity Pressure Visibility Wind Dir Wind Speed Gust Speed Precip Events Conditions
12:00 AM 19.4 °F 12.8 °F 14.0 °F 80% 29.68 in 9.0 mi NW 4.6 mph - N/A   Overcast
1:00 AM 19.4 °F 12.8 °F 14.0 °F 80% 29.69 in 9.0 mi NW 4.6 mph - N/A   Overcast
2:00 AM 19.4 °F 14.3 °F 14.0 °F 80% 29.70 in 9.0 mi North 3.5 mph - N/A   Overcast
3:00 AM 19.4 °F 10.4 °F 15.8 °F 86% 29.71 in 9.0 mi NW 6.9 mph - N/A   Overcast
3:30 AM 19.4 °F 9.5 °F 15.8 °F 86% 29.72 in 9.0 mi NW 8.1 mph - N/A Snow Light Snow
3:44 AM 19.4 °F 10.4 °F 14.0 °F 80% 29.72 in 9.0 mi NNW 6.9 mph - N/A   Overcast
4:00 AM 19.4 °F 9.5 °F 15.8 °F 86% 29.73 in 9.0 mi NW 8.1 mph - N/A   Overcast
5:00 AM 19.4 °F 7.9 °F 15.8 °F 86% 29.75 in 9.0 mi NW 10.4 mph - N/A   Overcast
6:00 AM 19.4 °F 8.6 °F 15.8 °F 86% 29.77 in 9.0 mi NW 9.2 mph - N/A   Overcast
6:42 AM 19.4 °F 8.6 °F 15.8 °F 86% 29.79 in 9.0 mi NW 9.2 mph - N/A   Overcast
7:00 AM 19.4 °F 8.6 °F 17.6 °F 93% 29.79 in 9.0 mi NW 9.2 mph - N/A   Overcast
8:00 AM 19.4 °F 7.2 °F 15.8 °F 86% 29.81 in 9.0 mi NW 11.5 mph - N/A   Overcast
9:00 AM 19.4 °F 6.6 °F 17.6 °F 93% 29.83 in 9.0 mi NW 12.7 mph - N/A   Overcast
10:00 AM 19.4 °F 6.0 °F 15.8 °F 86% 29.84 in 9.0 mi NW 13.8 mph - N/A   Overcast
10:09 AM 19.4 °F 6.0 °F 15.8 °F 86% 29.85 in 9.0 mi NW 13.8 mph - N/A   Overcast
11:00 AM 19.4 °F 5.0 °F 15.8 °F 86% 29.85 in 9.0 mi NW 16.1 mph - N/A   Overcast
12:00 PM 19.4 °F 6.0 °F 15.8 °F 86% 29.86 in 9.0 mi NNW 13.8 mph 19.6 mph N/A   Overcast
1:00 PM 19.4 °F 5.5 °F 14.0 °F 80% 29.89 in 9.0 mi NW 15.0 mph - N/A   Overcast
2:00 PM 19.4 °F 7.2 °F 14.0 °F 80% 29.93 in 9.0 mi NW 11.5 mph 20.7 mph N/A   Overcast
3:00 PM 19.4 °F 7.2 °F 14.0 °F 80% 29.98 in 9.0 mi NNW 11.5 mph 18.4 mph N/A   Overcast
4:00 PM 19.4 °F 6.0 °F 14.0 °F 80% 30.02 in 9.0 mi NW 13.8 mph - N/A   Overcast
5:00 PM 19.4 °F 7.9 °F 14.0 °F 80% 30.06 in 9.0 mi North 10.4 mph - N/A   Overcast
6:00 PM 17.6 °F 5.0 °F 12.2 °F 79% 30.10 in 9.0 mi NNE 11.5 mph - N/A   Overcast
7:00 PM 17.6 °F 8.2 °F 12.2 °F 79% 30.14 in 9.0 mi North 6.9 mph - N/A   Overcast
8:00 PM 17.6 °F 9.3 °F 12.2 °F 79% 30.19 in 9.0 mi North 5.8 mph - N/A   Overcast
9:00 PM 17.6 °F 8.2 °F 12.2 °F 79% 30.23 in 9.0 mi NNE 6.9 mph - N/A   Overcast
10:00 PM 17.6 °F 8.2 °F 10.4 °F 73% 30.27 in 9.0 mi NNE 6.9 mph - N/A   Overcast
11:00 PM 17.6 °F 12.3 °F 12.2 °F 79% 30.29 in 9.0 mi NE 3.5 mph - N/A   Overcast